Location: DaVinci Observatory
(43.1080°N, 78.6453°W)
Time: 22:29:54
(UTC-04:00)

Envisat - Pass Details

Date: 08 October 2017
Orbit: 764 x 766 km, 98.2° (Epoch: 22 October)

Event Time Altitude Azimuth Distance (km) Brightness Sun altitude
Exits shadow 22:21:38 17° 271° (W) 1,863 5.4 -39.1°
Drops below altitude 10° 22:24:46 10° 310° (NW) 2,309 6.2 -39.5°
Sets 22:27:55 0° 330° (NNW) 3,240 7.0 -40.0°
